This is the latest recevied weather packets stored in our database for station/object W1ERB-13. If no packets are shown the sender has not sent any weather packets the latest 10 day(s).
| Time | Temp. | Humidity | Pressure | Rain* | Wind** | Luminosity | Snow |
|---|---|---|---|---|---|---|---|
| 1777171597 | 5° C | 97% | 1019 hPa | 4.83 mm | - | 0 W/m² | - |
| 1777171293 | 5° C | 97% | 1019.1 hPa | 3.05 mm | - | 0 W/m² | - |
| 1777170992 | 5° C | 97% | 1019.1 hPa | 3.05 mm | - | 0 W/m² | - |
| 1777170687 | 5° C | 97% | 1019 hPa | 3.05 mm | - | 0 W/m² | - |
| 1777170384 | 5° C | 97% | 1019 hPa | 1.27 mm | - | 0 W/m² | - |
| 1777170081 | 5° C | 97% | 1019.1 hPa | 1.78 mm | - | 0 W/m² | - |
| 1777169779 | 5° C | 97% | 1019.1 hPa | 3.05 mm | - | 0 W/m² | - |
| 1777169476 | 5° C | 97% | 1019.2 hPa | 3.05 mm | - | 0 W/m² | - |
| 1777169175 | 5° C | 96% | 1019 hPa | 1.78 mm | - | 0 W/m² | - |
| 1777168870 | 5° C | 96% | 1019.1 hPa | 1.27 mm | - | 0 W/m² | - |
| 1777168567 | 5° C | 96% | 1018.8 hPa | 1.27 mm | - | 0 W/m² | - |
| 1777168264 | 5° C | 96% | 1018.8 hPa | 0 mm | - | 0 W/m² | - |
| 1777167963 | 5° C | 96% | 1018.8 hPa | 1.78 mm | - | 0 W/m² | - |
| 1777167663 | 5° C | 95% | 1018.6 hPa | 1.78 mm | - | 0 W/m² | - |
| 1777167359 | 5° C | 96% | 1018.8 hPa | 1.27 mm | - | 0 W/m² | - |
| 1777167054 | 5° C | 96% | 1018.8 hPa | 1.27 mm | - | 0 W/m² | - |
| 1777166751 | 5° C | 96% | 1018.6 hPa | 0 mm | - | 0 W/m² | - |
| 1777166445 | 5° C | 96% | 1018.8 hPa | 1.78 mm | - | 0 W/m² | - |
| 1777166141 | 5° C | 96% | 1018.8 hPa | 1.78 mm | - | 0 W/m² | - |
| 1777165838 | 5° C | 96% | 1018.6 hPa | 0 mm | - | 0 W/m² | - |
| 1777165537 | 5° C | 96% | 1018.5 hPa | 1.27 mm | - | 0 W/m² | - |
| 1777165233 | 5.56° C | 96% | 1018.6 hPa | 1.27 mm | - | 0 W/m² | - |
| 1777164933 | 5° C | 96% | 1018.7 hPa | 0 mm | - | 0 W/m² | - |
| 1777164633 | 5.56° C | 97% | 1018.5 hPa | 0 mm | - | 0 W/m² | - |
| 1777164332 | 5.56° C | 97% | 1018.5 hPa | 1.78 mm | - | 0 W/m² | - |
* Rain latest hour (hover to see other rain measurements)
** Current wind speed in m/s (hover to see current wind gust speed)